Total_Precipitation_Accumulation
1.19 1.21 1.33 1.50 1.60 1.65 1.81 1.80 1.75 1.75 1.81 1.80 1.80 1.82 1.77 1.68 1.77 1.97 2.08 2.27 2.43 2.47 2.41 2.43 2.43 2.58 2.63 2.52 2.61 2.74 2.97 3.16 2.81 2.29 2.36 2.50 2.43 2.20 2.00 1.81 1.69 1.65 1.64
1.17 1.25 1.32 1.43 1.52 1.59 1.65 1.73 1.79 1.78 1.87 1.89 1.88 1.85 1.70 1.68 1.77 1.87 2.00 2.18 2.31 2.39 2.50 2.60 2.39 2.52 2.64 2.58 2.59 2.61 2.74 3.02 2.90 2.72 2.65 2.72 2.65 2.40 2.14 1.86 1.55 1.41 1.46
1.29 1.31 1.28 1.35 1.35 1.41 1.51 1.58 1.72 1.80 1.87 1.97 2.00 1.92 1.84 1.85 1.91 1.96 2.02 2.16 2.26 2.32 2.43 2.44 2.40 2.54 2.43 2.50 2.60 2.56 2.57 2.62 2.73 2.69 2.54 2.59 2.53 2.35 2.16 1.88 1.63 1.59 1.43
1.23 1.28 1.29 1.29 1.35 1.46 1.55 1.61 1.69 1.70 1.78 1.81 1.80 1.87 1.92 1.96 1.97 1.96 1.96 2.00 2.05 2.11 2.10 2.01 1.96 2.01 2.08 2.29 2.29 2.31 2.40 2.47 2.55 2.47 2.42 2.48 2.48 2.51 2.35 2.06 1.90 1.73 1.54
1.24 1.21 1.27 1.38 1.42 1.47 1.49 1.52 1.58 1.61 1.60 1.77 1.80 1.90 1.99 1.96 1.84 1.87 1.88 1.81 1.95 1.90 1.76 1.72 1.72 1.82 1.84 1.93 1.85 1.96 2.16 2.25 2.29 2.35 2.42 2.57 2.56 2.67 2.54 2.26 2.13 1.98 1.70
1.24 1.35 1.44 1.46 1.40 1.47 1.51 1.52 1.53 1.58 1.65 1.75 1.81 1.93 1.99 1.84 1.88 1.91 1.92 1.90 1.92 1.86 1.81 1.74 1.61 1.61 1.60 1.62 1.62 1.68 1.84 1.99 2.16 2.31 2.37 2.46 2.52 2.49 2.47 2.33 2.22 2.04 1.76
1.33 1.36 1.55 1.66 1.57 1.62 1.65 1.64 1.61 1.61 1.74 1.82 1.95 2.02 1.98 2.07 2.00 1.83 1.83 1.79 1.82 1.84 1.87 1.85 1.56 1.38 1.51 1.46 1.57 1.55 1.53 1.60 1.71 1.87 1.98 2.11 2.32 2.41 2.50 2.41 2.40 2.27 1.96
1.45 1.53 1.78 1.94 1.82 1.81 1.80 1.82 1.85 1.90 1.92 2.02 2.06 1.98 1.95 2.02 1.98 1.66 1.54 1.44 1.54 1.64 1.71 1.78 1.77 1.66 1.61 1.62 1.66 1.66 1.58 1.56 1.66 1.64 1.68 1.90 2.25 2.54 2.60 2.54 2.57 2.43 2.12
1.63 1.75 1.98 2.20 2.32 2.27 2.12 2.18 2.25 2.22 2.18 2.24 2.26 2.21 2.08 2.08 1.93 1.57 1.38 1.29 1.43 1.52 1.58 1.57 1.59 1.52 1.55 1.45 1.45 1.51 1.51 1.47 1.47 1.46 1.48 1.61 1.88 2.25 2.46 2.49 2.56 2.46 2.23
1.80 1.83 1.99 2.19 2.29 2.26 2.27 2.46 2.57 2.47 2.36 2.37 2.27 2.14 2.04 2.03 1.98 1.64 1.43 1.34 1.47 1.55 1.65 1.63 1.61 1.55 1.52 1.35 1.28 1.35 1.32 1.34 1.43 1.42 1.38 1.37 1.47 1.76 2.10 2.09 2.16 2.30 2.08
1.77 1.80 1.92 2.15 2.41 2.37 2.39 2.48 2.56 2.56 2.54 2.54 2.44 2.30 2.13 2.07 2.05 1.74 1.54 1.42 1.50 1.56 1.50 1.51 1.51 1.51 1.29 1.19 1.15 1.17 1.22 1.23 1.36 1.39 1.40 1.42 1.48 1.56 1.71 1.79 1.87 1.97 1.95
1.78 1.75 1.84 2.11 2.24 2.29 2.43 2.47 2.57 2.67 2.64 2.60 2.56 2.37 2.31 2.24 1.97 1.71 1.54 1.49 1.55 1.60 1.58 1.54 1.51 1.39 1.16 1.06 0.94 0.89 0.94 0.93 0.98 1.12 1.18 1.21 1.29 1.35 1.46 1.61 1.79 1.87 1.88
1.64 1.62 1.71 1.88 1.97 2.12 2.23 2.18 2.23 2.34 2.33 2.36 2.36 2.29 2.32 2.42 2.25 1.82 1.53 1.44 1.48 1.55 1.67 1.73 1.53 1.34 1.19 1.07 1.01 0.93 0.84 0.79 0.88 0.98 1.04 1.04 1.09 1.20 1.38 1.60 1.80 2.01 1.95
1.58 1.53 1.64 1.85 1.96 2.04 2.09 2.08 2.13 2.18 2.24 2.31 2.32 2.26 2.27 2.40 2.38 2.07 1.74 1.52 1.43 1.39 1.40 1.40 1.30 1.23 1.10 0.99 0.92 0.83 0.74 0.77 0.84 0.87 0.95 1.03 1.13 1.31 1.41 1.43 1.54 1.78 1.96
1.68 1.63 1.72 1.83 1.92 2.09 2.15 2.17 2.17 2.16 2.13 2.12 2.11 2.06 2.07 2.18 2.21 1.99 1.72 1.56 1.45 1.40 1.35 1.33 1.30 1.30 1.19 1.10 1.03 0.98 0.98 0.99 0.96 0.95 1.02 1.12 1.18 1.26 1.36 1.44 1.52 1.60 1.64
1.82 1.78 1.74 1.70 1.78 1.85 1.89 1.85 1.80 1.74 1.73 1.67 1.65 1.57 1.56 1.71 1.71 1.44 1.28 1.29 1.30 1.26 1.20 1.23 1.29 1.33 1.28 1.21 1.17 1.13 1.14 1.13 1.10 1.12 1.14 1.20 1.25 1.27 1.35 1.49 1.63 1.66 1.57
1.86 1.74 1.63 1.56 1.56 1.57 1.66 1.74 1.79 1.67 1.57 1.47 1.40 1.29 1.19 1.39 1.46 1.29 1.15 1.09 1.05 1.04 1.05 1.11 1.15 1.24 1.29 1.20 1.11 1.07 1.07 1.10 1.18 1.22 1.21 1.24 1.32 1.36 1.40 1.49 1.63 1.74 1.67
1.86 1.75 1.56 1.46 1.45 1.44 1.54 1.63 1.66 1.67 1.62 1.42 1.26 1.16 1.05 1.15 1.26 1.22 1.11 0.97 0.93 0.93 0.95 1.05 1.13 1.19 1.27 1.23 1.14 1.14 1.18 1.22 1.21 1.22 1.25 1.27 1.35 1.40 1.44 1.49 1.55 1.63 1.66
1.83 1.73 1.60 1.55 1.54 1.43 1.34 1.37 1.41 1.46 1.52 1.44 1.25 1.17 1.12 1.15 1.23 1.18 1.04 0.90 0.93 0.93 0.94 1.01 1.09 1.16 1.20 1.19 1.20 1.24 1.24 1.27 1.22 1.24 1.30 1.35 1.36 1.44 1.44 1.49 1.57 1.68 1.69
1.54 1.53 1.48 1.48 1.48 1.41 1.34 1.33 1.39 1.45 1.51 1.46 1.32 1.22 1.13 1.10 1.14 1.14 1.03 0.95 0.94 0.92 0.93 1.00 1.08 1.13 1.18 1.21 1.30 1.37 1.37 1.39 1.40 1.35 1.37 1.43 1.39 1.40 1.40 1.43 1.55 1.61 1.61
1.34 1.29 1.23 1.22 1.24 1.25 1.24 1.29 1.41 1.48 1.51 1.41 1.21 1.08 1.00 0.89 0.97 0.99 1.01 1.04 1.03 1.06 1.09 1.11 1.16 1.22 1.25 1.33 1.41 1.47 1.49 1.49 1.50 1.44 1.42 1.48 1.48 1.50 1.51 1.47 1.50 1.61 1.61
1.39 1.23 1.09 1.04 1.07 1.11 1.20 1.30 1.36 1.36 1.29 1.22 1.11 1.02 1.00 0.91 0.92 0.93 0.99 1.00 1.01 1.02 1.01 1.04 1.07 1.15 1.20 1.26 1.31 1.37 1.40 1.40 1.45 1.49 1.47 1.48 1.49 1.47 1.50 1.48 1.46 1.56 1.67
1.21 1.02 0.86 0.82 0.86 0.97 1.13 1.31 1.34 1.25 1.14 1.09 1.07 1.03 1.03 1.03 1.00 0.99 1.01 1.00 0.99 0.97 0.96 0.99 1.00 1.04 1.11 1.12 1.12 1.19 1.25 1.27 1.29 1.37 1.47 1.45 1.47 1.50 1.52 1.56 1.55 1.59 1.68
1.12 0.95 0.82 0.76 0.79 0.89 1.07 1.27 1.28 1.15 1.09 1.12 1.11 1.10 1.08 1.06 1.03 1.04 1.06 1.07 1.05 1.01 0.99 1.03 1.03 0.98 0.99 1.04 1.02 0.99 1.01 1.00 1.02 1.12 1.27 1.39 1.43 1.51 1.52 1.55 1.61 1.60 1.68
1.06 0.97 0.86 0.85 0.89 1.03 1.22 1.31 1.22 1.11 1.06 1.05 1.05 1.13 1.18 1.17 1.13 1.10 1.08 1.12 1.14 1.15 1.10 1.06 1.04 0.97 0.90 0.91 0.92 0.89 0.90 0.84 0.81 0.88 1.01 1.17 1.24 1.36 1.42 1.47 1.58 1.61 1.63
1.03 1.01 0.95 0.95 1.03 1.16 1.25 1.26 1.15 1.08 1.11 1.07 1.04 1.08 1.14 1.18 1.19 1.22 1.20 1.15 1.10 1.07 1.01 0.98 0.95 0.94 0.89 0.83 0.79 0.76 0.72 0.69 0.71 0.80 0.88 0.98 1.09 1.19 1.29 1.36 1.41 1.49 1.51